Temp
45 44 43 42 42 41 41 40 39 38 37 37 36 36 36 35 35 34 34 33 32 31 31 30 30 29 31 29 28 28 28 27 27 27 27 27 27 27 28 27 27 27
44 43 42 41 40 39 39 39 39 38 37 36 35 35 35 34 33 33 32 31 31 30 30 29 29 28 27 27 27 26 26 26 26 29 27 27 27 27 27 27 27 27
43 42 41 40 40 39 38 38 37 36 36 35 34 34 33 33 32 31 31 30 29 29 28 28 27 27 26 26 26 26 25 25 26 26 27 26 26 26 26 26 26 26
42 42 41 40 39 38 37 36 35 34 33 33 32 32 32 32 31 30 29 30 28 27 27 26 26 26 25 25 25 26 25 26 26 26 26 26 26 26 26 26 26 26
42 41 40 39 38 37 36 35 33 32 32 32 31 31 30 30 29 28 28 27 27 26 27 26 26 25 25 25 24 25 25 25 25 25 25 24 25 25 26 26 25 25
41 40 39 38 36 36 34 33 32 32 31 30 30 30 29 29 28 27 27 27 27 27 26 26 25 24 24 24 24 24 24 24 24 24 23 23 23 24 25 25 24 23
39 38 37 36 35 34 33 32 31 31 31 30 30 29 29 28 27 27 27 27 26 26 25 24 24 24 24 23 23 23 24 23 23 23 22 22 23 23 23 23 23 22
38 37 36 35 34 33 32 31 31 30 30 29 29 28 28 28 27 27 26 26 25 25 24 24 23 23 23 23 23 22 23 24 23 22 21 21 21 21 22 22 22 21
37 35 35 33 33 32 31 31 30 30 30 29 28 28 27 27 27 26 26 25 25 24 24 23 23 22 23 22 22 22 22 22 23 21 21 20 20 20 21 21 21 21
35 35 33 33 32 32 31 30 30 29 29 28 28 27 27 26 26 26 25 25 24 23 23 22 22 22 22 22 22 22 21 21 21 21 21 21 20 20 20 21 20 20
34 34 33 32 32 31 30 30 29 29 28 28 27 27 26 26 25 25 24 24 23 22 22 22 22 22 22 22 22 22 21 21 21 21 21 21 21 21 22 21 21 20
34 33 33 32 31 31 30 30 29 28 28 27 27 26 25 25 24 24 23 23 22 22 22 22 22 22 21 21 21 21 21 21 21 20 21 21 21 21 21 21 21 20
34 33 33 32 31 31 30 29 28 27 26 26 25 25 24 23 23 22 22 22 21 21 21 22 22 21 20 20 20 21 21 20 20 21 21 21 22 22 22 22 22 21
34 34 32 32 31 30 29 28 27 26 25 24 23 23 22 21 21 21 20 20 20 20 21 20 21 20 20 20 20 20 20 20 21 21 21 21 21 22 22 23 23 22
34 33 32 30 29 28 27 26 25 24 23 22 21 20 20 20 20 19 19 18 19 19 20 20 20 20 20 20 20 21 21 20 21 20 20 20 21 22 22 22 23 23
32 31 30 29 28 26 26 24 23 21 20 19 18 18 17 18 18 18 17 17 17 18 19 19 19 20 21 24 24 21 20 20 19 20 21 21 21 21 22 23 23 23
31 30 29 27 26 25 23 22 20 19 17 16 15 15 15 15 16 16 16 17 17 17 18 19 20 20 23 25 26 27 24 22 21 21 22 22 22 21 21 22 23 24
30 27 25 25 24 22 20 19 17 16 15 15 14 13 14 14 14 15 16 16 17 17 18 19 20 22 24 25 26 26 26 23 22 21 22 22 22 22 22 22 22 23
27 25 24 22 21 20 18 16 15 15 14 13 13 14 13 13 14 14 15 16 17 17 18 19 19 22 24 25 25 26 26 25 23 22 22 22 22 23 22 22 22 22
25 23 22 21 19 17 16 15 14 14 13 13 12 13 13 13 13 14 15 15 16 17 17 18 18 20 23 24 24 25 25 25 23 23 22 22 22 22 22 21 21 21
23 22 20 18 16 15 14 12 12 11 12 12 12 12 12 13 13 13 14 15 16 16 16 16 16 20 21 23 24 24 25 25 23 22 21 21 22 22 22 22 22 23
22 21 18 16 15 13 12 12 11 11 11 12 12 13 13 14 14 14 14 14 15 14 14 13 15 19 21 22 23 24 25 23 22 20 20 20 20 22 22 23 23 23
22 19 16 15 13 12 11 11 11 11 12 13 12 13 13 13 13 14 14 14 13 13 12 12 13 16 19 21 22 24 24 21 21 20 19 19 20 21 22 22 23 23
21 18 16 14 12 12 12 12 12 12 12 13 12 12 12 13 13 13 14 13 13 12 12 11 12 15 19 20 22 24 23 20 20 19 18 19 19 21 22 22 23 25
19 18 16 14 13 12 12 11 11 12 12 12 12 13 12 13 13 12 12 12 13 12 15 13 12 14 19 21 22 23 23 21 19 18 17 18 19 19 22 22 23 24
18 16 15 14 13 12 12 12 12 11 11 11 12 12 11 12 12 11 10 11 12 12 12 13 12 12 15 20 22 23 24 21 19 17 16 17 19 19 19 21 22 22
MSLP
1012.77 1013.13 1013.53 1013.89 1014.17 1014.45 1014.77 1015.13 1015.49 1015.81 1016.17 1016.49 1016.77 1017.13 1017.41 1017.81 1018.13 1018.53 1018.93 1019.29 1019.57 1019.89 1020.21 1020.49 1020.73 1020.93 1021.05 1021.17 1021.25 1021.29 1021.33 1021.53 1021.85 1022.09 1022.17 1022.21 1022.21 1022.29 1022.29 1022.33 1022.33 1022.29
1012.29 1012.73 1013.21 1013.69 1014.05 1014.37 1014.65 1014.85 1015.17 1015.45 1015.85 1016.21 1016.57 1016.93 1017.33 1017.61 1018.05 1018.41 1018.85 1019.21 1019.53 1019.85 1020.13 1020.41 1020.61 1020.77 1020.89 1021.01 1021.05 1021.09 1021.25 1021.53 1021.81 1021.97 1022.01 1021.97 1021.97 1022.01 1022.05 1022.05 1022.05 1022.01
1011.93 1012.37 1012.77 1013.13 1013.53 1014.01 1014.37 1014.81 1015.13 1015.49 1015.77 1016.17 1016.53 1016.85 1017.25 1017.61 1018.05 1018.49 1018.89 1019.21 1019.53 1019.85 1020.09 1020.33 1020.49 1020.57 1020.69 1020.77 1020.85 1020.97 1021.21 1021.53 1021.77 1021.85 1021.85 1021.77 1021.73 1021.73 1021.73 1021.73 1021.77 1021.65
1011.21 1011.65 1012.13 1012.65 1013.17 1013.61 1014.09 1014.57 1015.09 1015.45 1015.85 1016.25 1016.49 1016.85 1017.17 1017.65 1018.05 1018.49 1018.89 1019.21 1019.57 1019.85 1020.05 1020.21 1020.29 1020.37 1020.49 1020.57 1020.65 1020.85 1021.13 1021.37 1021.53 1021.61 1021.57 1021.49 1021.45 1021.45 1021.41 1021.49 1021.41 1021.37
1010.45 1011.13 1011.77 1012.33 1012.85 1013.33 1013.81 1014.25 1014.73 1015.21 1015.61 1016.01 1016.53 1016.85 1017.21 1017.65 1018.05 1018.45 1018.81 1019.17 1019.53 1019.85 1020.01 1020.09 1020.13 1020.21 1020.25 1020.37 1020.49 1020.77 1020.97 1021.17 1021.29 1021.33 1021.29 1021.25 1021.21 1021.25 1021.25 1021.29 1021.21 1021.21
1010.21 1010.65 1011.25 1011.85 1012.45 1012.97 1013.57 1014.01 1014.49 1014.97 1015.45 1015.97 1016.29 1016.69 1017.09 1017.49 1017.93 1018.33 1018.69 1019.13 1019.45 1019.65 1019.77 1019.85 1019.89 1019.97 1020.05 1020.21 1020.41 1020.65 1020.89 1021.09 1021.17 1021.21 1021.13 1021.09 1021.13 1021.17 1021.17 1021.17 1021.17 1021.13
1009.57 1010.29 1010.89 1011.53 1012.21 1012.73 1013.25 1013.77 1014.33 1014.77 1015.17 1015.61 1016.13 1016.49 1016.85 1017.25 1017.69 1018.09 1018.49 1018.89 1019.17 1019.37 1019.53 1019.61 1019.65 1019.81 1019.93 1020.13 1020.33 1020.57 1020.81 1021.01 1021.13 1021.09 1020.97 1020.97 1021.05 1021.09 1021.09 1021.09 1021.05 1021.01
1009.49 1010.21 1010.85 1011.41 1011.93 1012.49 1012.93 1013.49 1013.97 1014.45 1014.93 1015.45 1015.81 1016.29 1016.61 1017.05 1017.41 1017.89 1018.29 1018.65 1018.97 1019.13 1019.29 1019.41 1019.53 1019.69 1019.85 1020.05 1020.29 1020.57 1020.73 1020.93 1021.01 1020.89 1020.85 1020.85 1021.01 1021.01 1021.01 1021.01 1020.93 1020.89
1009.41 1010.09 1010.61 1011.17 1011.69 1012.21 1012.65 1013.09 1013.57 1014.09 1014.61 1015.05 1015.61 1016.09 1016.57 1016.89 1017.29 1017.69 1018.09 1018.45 1018.73 1018.97 1019.13 1019.29 1019.45 1019.61 1019.77 1019.97 1020.25 1020.49 1020.65 1020.81 1020.77 1020.73 1020.73 1020.81 1020.93 1020.89 1020.89 1020.85 1020.81 1020.73
1009.13 1009.77 1010.41 1010.89 1011.33 1011.77 1012.25 1012.73 1013.21 1013.73 1014.25 1014.81 1015.33 1015.93 1016.41 1016.89 1017.17 1017.53 1017.89 1018.25 1018.61 1018.85 1019.01 1019.21 1019.37 1019.53 1019.69 1019.89 1020.13 1020.33 1020.57 1020.65 1020.65 1020.57 1020.57 1020.65 1020.73 1020.77 1020.73 1020.69 1020.61 1020.49
1008.77 1009.37 1009.93 1010.45 1010.85 1011.37 1011.85 1012.41 1012.89 1013.45 1013.97 1014.45 1015.05 1015.65 1016.21 1016.73 1017.13 1017.45 1017.81 1018.13 1018.49 1018.73 1018.89 1019.05 1019.21 1019.33 1019.53 1019.77 1019.97 1020.21 1020.45 1020.53 1020.45 1020.41 1020.45 1020.49 1020.53 1020.49 1020.41 1020.37 1020.29 1020.09
1008.25 1008.85 1009.33 1009.77 1010.33 1010.97 1011.49 1012.01 1012.57 1013.09 1013.65 1014.25 1014.69 1015.37 1016.05 1016.57 1016.97 1017.33 1017.65 1018.01 1018.33 1018.57 1018.73 1018.89 1019.01 1019.17 1019.41 1019.61 1019.89 1020.13 1020.25 1020.25 1020.21 1020.21 1020.25 1020.25 1020.25 1020.17 1020.09 1020.01 1019.81 1019.65
1007.77 1008.13 1008.65 1009.37 1010.01 1010.61 1011.25 1011.85 1012.33 1012.85 1013.37 1013.93 1014.53 1015.13 1015.77 1016.37 1016.85 1017.21 1017.57 1017.93 1018.17 1018.41 1018.61 1018.77 1018.93 1019.09 1019.33 1019.53 1019.77 1019.97 1020.05 1020.05 1020.01 1020.01 1020.01 1020.01 1019.85 1019.77 1019.65 1019.53 1019.37 1019.21
1007.33 1007.93 1008.61 1009.25 1009.89 1010.49 1010.97 1011.49 1012.05 1012.61 1013.13 1013.73 1014.29 1014.93 1015.57 1016.17 1016.65 1017.09 1017.49 1017.85 1018.13 1018.37 1018.61 1018.81 1018.93 1019.09 1019.25 1019.45 1019.65 1019.73 1019.77 1019.77 1019.73 1019.73 1019.73 1019.65 1019.57 1019.45 1019.25 1019.05 1018.85 1018.69
1007.25 1008.09 1008.69 1009.25 1009.73 1010.29 1010.77 1011.25 1011.73 1012.25 1012.85 1013.41 1014.09 1014.77 1015.45 1016.05 1016.57 1017.01 1017.45 1017.81 1018.09 1018.33 1018.61 1018.77 1018.85 1018.97 1019.05 1019.17 1019.33 1019.37 1019.37 1019.41 1019.41 1019.53 1019.57 1019.45 1019.25 1019.05 1018.81 1018.61 1018.37 1018.09
1007.13 1007.81 1008.45 1009.01 1009.53 1009.97 1010.41 1010.97 1011.53 1012.17 1012.77 1013.37 1014.05 1014.65 1015.25 1015.89 1016.49 1016.97 1017.37 1017.73 1018.05 1018.33 1018.57 1018.69 1018.69 1018.69 1018.73 1018.65 1018.69 1018.93 1019.05 1019.17 1019.29 1019.29 1019.17 1018.97 1018.77 1018.53 1018.29 1018.05 1017.77 1017.53
1006.77 1007.37 1008.01 1008.65 1009.13 1009.81 1010.41 1010.93 1011.53 1012.13 1012.77 1013.45 1014.13 1014.73 1015.29 1015.89 1016.49 1016.97 1017.41 1017.73 1018.01 1018.25 1018.41 1018.37 1018.37 1018.37 1018.29 1018.25 1018.17 1018.13 1018.37 1018.61 1018.73 1018.73 1018.69 1018.53 1018.29 1018.05 1017.77 1017.53 1017.25 1017.01
1006.17 1006.97 1007.73 1008.45 1009.17 1009.77 1010.37 1011.01 1011.69 1012.33 1012.93 1013.53 1014.21 1014.89 1015.49 1016.01 1016.53 1016.97 1017.33 1017.61 1017.85 1018.05 1018.13 1018.05 1018.05 1018.01 1017.97 1017.93 1017.85 1017.89 1018.01 1018.17 1018.25 1018.29 1018.17 1018.01 1017.77 1017.57 1017.29 1017.09 1016.81 1016.49
1006.25 1007.13 1007.89 1008.69 1009.33 1009.97 1010.69 1011.33 1011.85 1012.37 1012.93 1013.53 1014.13 1014.73 1015.33 1015.93 1016.37 1016.81 1017.13 1017.33 1017.53 1017.69 1017.73 1017.73 1017.77 1017.77 1017.77 1017.69 1017.65 1017.69 1017.77 1017.81 1017.81 1017.73 1017.69 1017.49 1017.29 1017.09 1016.93 1016.77 1016.45 1016.09
1006.45 1007.29 1008.05 1008.85 1009.65 1010.37 1010.97 1011.49 1011.97 1012.41 1012.97 1013.57 1014.17 1014.77 1015.21 1015.69 1016.13 1016.45 1016.69 1016.93 1017.09 1017.29 1017.41 1017.41 1017.49 1017.57 1017.57 1017.49 1017.49 1017.53 1017.53 1017.49 1017.37 1017.29 1017.13 1017.01 1016.97 1016.89 1016.73 1016.49 1016.17 1015.77
1006.37 1007.09 1007.89 1008.85 1009.65 1010.37 1011.01 1011.57 1012.09 1012.73 1013.33 1013.77 1014.13 1014.45 1014.89 1015.29 1015.69 1016.05 1016.33 1016.57 1016.85 1017.09 1017.21 1017.21 1017.29 1017.37 1017.33 1017.25 1017.25 1017.25 1017.21 1017.05 1016.97 1016.97 1016.93 1016.85 1016.69 1016.57 1016.37 1016.09 1015.69 1015.29
1005.73 1006.57 1007.57 1008.57 1009.33 1010.01 1010.57 1011.09 1011.65 1012.09 1012.65 1013.21 1013.69 1014.09 1014.61 1015.01 1015.41 1015.69 1016.01 1016.41 1016.73 1016.97 1017.09 1017.17 1017.17 1017.17 1017.09 1017.01 1017.01 1016.93 1016.77 1016.73 1016.81 1016.85 1016.69 1016.53 1016.33 1016.17 1015.97 1015.61 1015.21 1014.81
1005.29 1006.21 1007.33 1008.25 1009.05 1009.77 1010.41 1010.97 1011.37 1011.93 1012.33 1012.65 1013.13 1013.61 1014.13 1014.57 1014.93 1015.21 1015.65 1016.13 1016.49 1016.73 1016.89 1017.01 1017.01 1017.05 1016.93 1016.81 1016.73 1016.57 1016.49 1016.53 1016.53 1016.45 1016.33 1016.21 1016.01 1015.73 1015.41 1015.05 1014.69 1014.33
1004.85 1005.65 1006.69 1007.69 1008.61 1009.13 1009.73 1010.37 1010.89 1011.29 1011.77 1012.09 1012.37 1012.93 1013.61 1014.09 1014.49 1015.01 1015.45 1015.81 1016.13 1016.37 1016.53 1016.77 1016.85 1016.85 1016.69 1016.53 1016.33 1016.21 1016.17 1016.21 1016.21 1016.13 1015.97 1015.81 1015.61 1015.33 1014.93 1014.41 1014.05 1013.89
1004.69 1005.53 1006.25 1007.09 1007.93 1008.65 1009.25 1009.89 1010.45 1010.81 1011.29 1011.73 1012.05 1012.45 1013.09 1013.69 1014.21 1014.85 1015.33 1015.65 1015.89 1016.17 1016.29 1016.49 1016.65 1016.61 1016.33 1016.13 1015.97 1015.93 1015.93 1015.89 1015.85 1015.77 1015.69 1015.45 1015.13 1014.65 1014.25 1013.97 1013.65 1013.53
1004.69 1005.37 1006.09 1006.69 1007.57 1008.57 1009.25 1009.65 1010.09 1010.69 1011.17 1011.53 1011.93 1012.25 1012.73 1013.37 1014.05 1014.65 1015.13 1015.41 1015.65 1015.89 1016.17 1016.25 1016.37 1016.37 1016.25 1015.93 1015.77 1015.69 1015.61 1015.53 1015.49 1015.49 1015.29 1014.93 1014.53 1014.05 1013.73 1013.49 1013.45 1013.25
Wind_Speed
12 11 11 10 9 9 10 10 9 9 8 8 8 8 8 7 8 7 7 6 5 4 4 4 4 4 3 3 3 3 2 3 3 3 4 5 5 5 6 6 6 6
13 12 9 9 8 7 7 8 9 10 9 8 7 7 7 8 7 7 7 6 5 5 4 4 4 4 4 3 2 1 1 2 4 3 5 6 6 5 7 7 7 7
12 12 12 12 11 10 10 8 8 8 8 8 7 7 7 7 7 6 6 6 5 5 4 4 4 4 3 3 2 2 3 3 5 4 5 6 6 6 6 6 6 7
15 14 13 12 11 11 10 9 8 7 7 8 8 7 7 6 7 7 6 5 5 4 4 4 4 4 3 3 3 3 3 5 5 5 6 5 5 5 6 5 6 6
16 14 12 11 10 10 10 10 10 9 9 8 7 7 8 7 7 6 5 4 4 4 5 5 4 4 4 3 3 3 4 5 4 4 5 5 4 4 5 5 5 7
13 13 12 12 11 12 11 11 10 10 9 9 9 7 7 7 7 6 6 5 5 6 5 5 4 3 3 2 2 3 3 5 5 4 4 5 4 4 5 5 6 8
15 14 14 11 11 11 11 10 9 9 9 8 7 8 8 8 7 7 6 6 6 5 5 4 3 3 3 3 3 3 4 4 4 5 5 5 5 6 5 6 7 8
14 11 12 11 12 11 11 11 10 10 9 9 9 7 8 8 8 6 6 6 5 5 4 4 3 3 3 2 3 4 4 4 5 5 5 6 5 7 6 6 7 8
12 12 12 13 13 11 12 11 11 10 9 10 9 8 7 7 7 7 6 6 5 5 4 3 3 3 3 3 4 5 5 5 5 4 5 6 7 8 7 7 8 9
14 12 14 14 14 12 13 12 11 10 9 9 9 8 8 7 7 7 6 5 5 4 4 3 3 3 3 3 4 5 5 6 5 6 6 6 8 8 8 8 9 9
15 14 15 15 14 12 13 12 12 11 10 10 10 9 8 7 6 6 6 5 6 5 4 4 4 4 4 4 4 4 5 6 6 6 6 7 8 9 9 9 9 9
16 15 16 17 15 13 14 13 12 11 11 9 10 10 8 7 7 6 6 6 5 5 4 4 4 3 4 4 5 5 6 6 6 7 7 8 9 9 9 9 10 10
16 17 16 15 14 13 12 12 12 11 11 11 9 10 9 8 7 7 5 6 5 4 4 4 3 3 4 4 5 6 7 7 7 7 9 8 9 9 9 10 10 10
16 14 13 13 12 12 12 12 12 11 11 10 10 10 9 9 8 8 5 5 4 3 3 3 3 4 4 6 6 7 7 7 7 8 8 8 9 10 10 11 12 12
12 11 11 12 13 13 13 13 13 12 11 11 10 9 8 8 7 7 6 5 4 4 4 4 4 5 5 6 7 8 7 7 7 7 8 10 11 11 11 12 12 12
13 12 12 13 13 14 14 13 12 12 11 10 10 9 8 7 7 6 6 6 5 5 5 5 5 5 9 15 13 7 6 5 5 8 10 11 11 12 12 12 12 11
13 14 14 15 14 13 11 13 12 11 11 10 10 9 9 7 7 8 6 6 6 6 6 6 6 7 14 14 14 15 8 6 8 9 10 11 11 11 12 12 12 13
15 14 14 13 13 13 13 12 11 11 11 10 10 10 8 7 7 7 6 6 6 6 7 7 6 9 13 13 13 13 12 9 8 8 9 10 10 11 11 11 12 12
12 13 13 12 12 12 11 11 12 11 11 11 11 9 9 8 7 7 7 7 7 7 7 7 6 9 12 13 12 13 13 11 8 9 10 10 10 11 11 12 11 11
12 13 13 12 11 11 11 11 11 12 10 8 8 9 8 8 8 8 7 7 7 7 6 6 6 8 12 12 12 12 13 12 8 9 9 10 11 10 10 11 12 12
13 13 14 13 12 12 11 11 11 10 10 8 8 9 9 9 8 8 7 6 6 5 5 5 5 10 11 12 12 12 12 11 7 7 8 8 9 10 10 11 13 13
16 15 14 14 14 13 13 13 12 12 11 10 9 7 6 6 6 6 7 7 7 5 4 5 6 10 11 12 12 11 12 7 6 7 7 8 8 10 11 11 12 12
16 16 16 15 15 15 14 13 11 10 9 8 9 9 9 8 7 7 6 6 6 6 6 6 6 8 11 11 11 11 9 4 5 5 7 8 9 10 11 11 10 11
16 17 18 16 16 16 15 10 8 7 9 8 9 10 9 8 7 6 6 6 7 7 6 6 5 8 11 11 11 11 8 4 4 6 6 7 9 10 9 9 12 20
15 16 17 17 15 11 11 11 11 10 9 7 6 7 8 7 6 6 5 4 5 5 8 8 6 8 12 10 11 10 8 5 5 5 6 7 8 9 9 10 12 13
13 16 16 17 16 15 8 8 8 9 9 9 7 6 7 7 6 6 6 5 4 5 5 6 6 6 7 11 10 10 10 6 4 5 7 8 8 8 8 9 12 12
Wind_Direction
186 186 185 184 186 181 174 173 173 168 168 165 163 166 164 159 151 154 157 154 160 163 177 186 186 190 185 185 191 195 200 217 240 240 242 244 249 247 252 250 251 247
187 183 181 178 178 175 173 170 168 166 164 161 156 148 147 142 145 146 152 156 162 175 179 184 191 189 191 186 183 191 234 242 255 244 242 242 243 242 247 249 251 252
183 183 181 181 179 175 170 164 159 160 157 156 145 143 144 143 143 147 155 159 169 176 181 183 183 186 181 183 185 196 217 234 245 242 242 241 243 239 245 250 249 251
187 185 183 180 173 171 164 157 156 152 146 147 158 153 144 145 144 150 153 157 163 174 178 182 188 188 184 190 191 210 220 234 234 232 242 246 243 243 253 248 253 257
185 183 179 176 171 165 160 161 160 159 159 155 143 145 143 144 148 151 151 165 168 183 186 192 186 188 187 190 192 217 230 240 241 237 242 249 244 254 263 262 267 268
185 181 176 172 168 164 165 165 162 157 154 154 160 148 148 145 151 155 160 171 179 182 189 186 186 185 177 185 201 221 232 244 247 241 250 253 261 258 266 268 269 269
183 176 174 167 161 165 163 163 159 157 158 155 142 155 149 152 156 160 165 172 176 180 183 188 180 189 175 179 206 233 239 242 245 248 253 258 265 266 262 266 266 268
176 171 167 164 163 163 162 161 160 159 155 149 156 154 150 154 158 158 163 171 174 186 187 185 185 180 182 181 222 234 243 236 244 247 250 260 258 265 262 260 265 266
168 169 168 168 166 167 165 162 159 155 153 153 152 151 149 154 158 158 165 167 174 182 184 184 183 189 188 202 223 230 237 242 244 243 252 258 259 260 263 264 265 263
172 169 167 171 173 172 168 164 158 155 150 148 147 146 151 155 154 159 159 169 176 182 182 187 189 191 201 214 225 230 240 247 243 246 250 253 255 259 261 259 259 265
173 171 174 176 176 172 169 161 158 152 152 151 146 149 153 150 156 155 160 167 181 185 193 193 196 195 205 220 227 227 235 240 243 246 248 251 253 255 258 256 255 255
177 176 179 179 175 170 167 161 156 154 152 151 151 150 148 155 157 163 167 178 178 189 188 194 191 192 205 221 228 234 237 237 241 245 248 251 251 252 252 253 255 254
182 184 180 176 173 168 161 157 157 153 151 152 151 150 153 157 161 158 166 170 180 177 189 190 197 200 213 227 231 234 234 239 245 247 249 249 250 250 251 252 253 253
188 180 173 171 165 160 161 157 152 151 151 146 145 151 154 157 162 162 159 156 173 176 190 187 198 212 223 227 232 230 233 237 239 245 251 256 255 255 256 257 256 260
175 170 168 163 163 159 157 158 156 151 147 145 144 143 142 146 147 148 157 159 169 176 192 201 206 221 224 227 226 229 224 231 240 251 255 257 258 261 261 261 262 262
169 167 168 165 163 164 162 156 153 149 144 142 144 144 141 144 145 146 155 164 172 189 197 209 218 220 230 232 229 211 215 226 238 244 253 260 265 269 267 265 264 263
168 171 166 170 168 160 157 154 151 147 143 141 141 143 144 142 144 149 159 171 182 195 208 212 218 223 233 237 241 244 234 232 249 259 262 264 265 268 273 273 273 275
172 167 167 167 161 162 157 150 143 143 144 144 143 141 143 139 148 161 163 177 186 200 212 219 223 233 238 244 248 249 251 254 257 259 261 265 270 272 273 278 282 281
166 164 165 162 163 155 150 146 146 147 146 149 153 147 142 151 160 163 174 179 191 200 213 220 229 239 248 254 257 257 259 261 262 265 268 266 270 275 282 284 284 284
162 161 162 160 152 148 148 149 150 151 144 139 134 142 150 153 162 167 172 181 191 201 211 226 234 242 254 258 261 262 263 267 267 267 271 278 280 281 280 283 284 289
161 162 159 155 153 150 149 150 149 142 143 145 149 153 156 159 162 166 177 176 185 197 209 227 237 247 255 260 263 268 270 273 278 285 284 278 277 280 282 282 288 290
165 164 159 156 155 155 156 155 153 156 151 149 147 143 140 143 152 158 168 176 185 186 201 233 246 252 261 264 267 269 275 282 284 282 279 282 282 284 285 287 288 289
167 162 160 160 159 158 160 158 152 149 146 142 141 147 151 156 158 161 166 170 176 180 200 231 245 255 262 264 264 269 279 267 267 267 274 279 284 287 288 286 283 289
169 164 162 161 162 165 163 154 140 131 142 150 147 147 152 155 154 149 164 171 182 186 198 220 240 255 259 261 264 268 272 267 269 265 266 276 282 285 283 283 293 300
167 165 163 162 163 151 156 143 151 150 146 140 137 132 138 144 140 149 158 169 184 186 210 223 234 246 258 261 263 268 274 266 262 268 274 276 283 285 286 296 300 301
166 165 164 163 157 127 129 139 136 135 144 145 140 133 137 134 139 148 160 172 176 184 205 228 237 244 251 258 264 273 280 280 258 274 279 278 281 286 296 303 304 303